,,Stat6,,Stat2,,Stat8,,Stat9,,Stat10,,Wind1,,Wind1,
time,status,PA1M_AVG,status,PR1M_SUM,status,RH1M_AVG,status,SR1M_AVG,status,TA1M_AVG,status,W1dAve1m,status,W1sAve1m,
2005-06-06, 00:00:00,VALID,916.918,VALID,0,VALID,100,VALID,-0.101885,VALID,20.0532,VALID,156,VALID,0.607617,
2005-06-06, 00:01:00,VALID,916.892,VALID,0,VALID,100,VALID,-0.135847,VALID,20.0435,VALID,154,VALID,0.690163,
2005-06-06, 00:02:00,VALID,916.878,VALID,0,VALID,100,VALID,-0.0849042,VALID,20.0333,VALID,155,VALID,0.969131,
2005-06-06, 00:03:00,VALID,916.873,VALID,0,VALID,100,VALID,-0.101885,VALID,20.0204,VALID,148,VALID,1.02715,
2005-06-06, 00:04:00,VALID,916.857,VALID,0,VALID,100,VALID,-0.101885,VALID,20.0177,VALID,141,VALID,0.910528,
2005-06-06, 00:05:00,VALID,916.858,VALID,0,VALID,100,VALID,-0.101885,VALID,20.0244,VALID,146,VALID,0.883743,
2005-06-06, 00:06:00,VALID,916.851,VALID,0,VALID,100,VALID,-0.0849042,VALID,20.0306,VALID,145,VALID,1.04021,
2005-06-06, 00:07:00,VALID,916.833,VALID,0,VALID,100,VALID,-0.0849042,VALID,20.0505,VALID,140,VALID,1.00236,
2005-06-06, 00:08:00,VALID,916.818,VALID,0,VALID,100,VALID,-0.0509425,VALID,20.0597,VALID,135,VALID,0.687682,
2005-06-06, 00:09:00,VALID,916.794,VALID,0,VALID,100,VALID,-0.0339617,VALID,20.0728,VALID,138,VALID,0.832209,
2005-06-06, 00:10:00,VALID,916.784,VALID,0,VALID,100,VALID,-0.0679233,VALID,20.0723,VALID,134,VALID,0.68022,
2005-06-06, 00:11:00,VALID,916.768,VALID,0,VALID,99.9868,VALID,-0.0679233,VALID,20.0922,VALID,129,VALID,0.657366,
2005-06-06, 00:12:00,VALID,916.772,VALID,0,VALID,99.9517,VALID,-0.0169808,VALID,20.0949,VALID,125,VALID,0.733974,
2005-06-06, 00:13:00,VALID,916.76,VALID,0,VALID,99.8833,VALID,-0.0339617,VALID,20.0952,VALID,124,VALID,0.623047,
2005-06-06, 00:14:00,VALID,916.759,VALID,0,VALID,99.8642,VALID,-0.0339617,VALID,20.0882,VALID,128,VALID,0.735465,
2005-06-06, 00:15:00,VALID,916.757,VALID,0,VALID,99.9405,VALID,-0.0339617,VALID,20.1014,VALID,134,VALID,0.97061,
2005-06-06, 00:16:00,VALID,916.752,VALID,0,VALID,99.9062,VALID,-0.0509425,VALID,20.1146,VALID,138,VALID,0.806176,
2005-06-06, 00:17:00,VALID,916.735,VALID,0,VALID,99.8515,VALID,-0.0169808,VALID,20.1175,VALID,157,VALID,0.962754,
2005-06-06, 00:18:00,VALID,916.704,VALID,0,VALID,99.8744,VALID,-0.0509425,VALID,20.121,VALID,146,VALID,0.998958,
2005-06-06, 00:19:00,VALID,916.706,VALID,0,VALID,99.8578,VALID,-0.0849042,VALID,20.1205,VALID,150,VALID,0.788352,
2005-06-06, 00:20:00,VALID,916.681,VALID,0,VALID,99.8375,VALID,-0.0849042,VALID,20.121,VALID,144,VALID,0.752663,
2005-06-06, 00:21:00,VALID,916.678,VALID,0,VALID,99.8629,VALID,-0.0339617,VALID,20.1275,VALID,151,VALID,1.11547,
2005-06-06, 00:22:00,VALID,916.671,VALID,0,VALID,99.9685,VALID,-0.0339617,VALID,20.1374,VALID,150,VALID,0.920422,
2005-06-06, 00:23:00,VALID,916.668,VALID,0,VALID,99.9405,VALID,-0.0679233,VALID,20.1143,VALID,150,VALID,0.488948,
2005-06-06, 00:24:00,VALID,916.663,VALID,0,VALID,99.9886,VALID,-0.0339617,VALID,20.1011,VALID,154,VALID,0.749112,
2005-06-06, 00:25:00,VALID,916.645,VALID,0,VALID,99.9608,VALID,-0.0679233,VALID,20.0982,VALID,150,VALID,0.700721,
2005-06-06, 00:26:00,VALID,916.635,VALID,0,VALID,99.9138,VALID,-0.0679233,VALID,20.0882,VALID,151,VALID,0.602628,
2005-06-06, 00:27:00,VALID,916.608,VALID,0,VALID,99.8985,VALID,-0.0169808,VALID,20.086,VALID,138,VALID,0.604288,
2005-06-06, 00:28:00,VALID,916.593,VALID,0,VALID,99.9418,VALID,-0.0509425,VALID,20.0664,VALID,126,VALID,0.646439,
2005-06-06, 00:29:00,VALID,916.566,VALID,0,VALID,99.9529,VALID,-0.0339617,VALID,20.0465,VALID,127,VALID,0.8,
2005-06-06, 00:30:00,VALID,916.55,VALID,0,VALID,99.9402,VALID,-0.0679233,VALID,20.0435,VALID,119,VALID,1.09102,
2005-06-06, 00:31:00,VALID,916.543,VALID,0,VALID,99.7701,VALID,-0.101885,VALID,20.0408,VALID,117,VALID,0.862216,
2005-06-06, 00:32:00,VALID,916.51,VALID,0,VALID,99.5488,VALID,-0.0509425,VALID,20.0174,VALID,119,VALID,0.812863,
2005-06-06, 00:33:00,VALID,916.503,VALID,0,VALID,99.4929,VALID,-0.0339617,VALID,19.9983,VALID,114,VALID,0.842076,
2005-06-06, 00:34:00,VALID,916.484,VALID,0,VALID,99.3314,VALID,-0.0509425,VALID,19.9884,VALID,102,VALID,0.995793,
2005-06-06, 00:35:00,VALID,916.468,VALID,0,VALID,99.0682,VALID,-0.0849042,VALID,19.9628,VALID,106,VALID,1.18038,
2005-06-06, 00:36:00,VALID,916.463,VALID,0,VALID,98.9092,VALID,-0.0339617,VALID,19.9437,VALID,102,VALID,0.792333,
2005-06-06, 00:37:00,VALID,916.44,VALID,0,VALID,99.0923,VALID,0.0169808,VALID,19.9173,VALID,127,VALID,0.932118,
2005-06-06, 00:38:00,VALID,916.408,VALID,0,VALID,99.4013,VALID,0.0679233,VALID,19.9131,VALID,140,VALID,0.701042,
2005-06-06, 00:39:00,VALID,916.391,VALID,0,VALID,99.7447,VALID,0.0169808,VALID,19.9196,VALID,154,VALID,0.589935,
2005-06-06, 00:40:00,VALID,916.367,VALID,0,VALID,99.9046,VALID,0.0849042,VALID,19.932,VALID,159,VALID,0.787609,
2005-06-06, 00:41:00,VALID,916.344,VALID,0,VALID,100,VALID,0.0169808,VALID,19.9456,VALID,160,VALID,0.556362,
2005-06-06, 00:42:00,VALID,916.328,VALID,0,VALID,100,VALID,0.0509425,VALID,19.9521,VALID,144,VALID,0.739236,
2005-06-06, 00:43:00,VALID,916.3,VALID,0,VALID,100,VALID,0.0339617,VALID,19.9327,VALID,133,VALID,0.410156,
2005-06-06, 00:44:00,VALID,916.273,VALID,0,VALID,100,VALID,0.0169808,VALID,19.9066,VALID,123,VALID,0.654576,
2005-06-06, 00:45:00,VALID,916.28,VALID,0,VALID,100,VALID,0.0339617,VALID,19.8773,VALID,109,VALID,0.64335,
2005-06-06, 00:46:00,VALID,916.268,VALID,0,VALID,99.9977,VALID,0.0679233,VALID,19.8354,VALID,99,VALID,0.620898,
2005-06-06, 00:47:01,VALID,916.273,VALID,0,VALID,99.8438,VALID,0.0849042,VALID,19.7613,VALID,92,VALID,0.737805,
2005-06-06, 00:48:00,VALID,916.255,VALID,0,VALID,99.9023,VALID,0.0849042,VALID,19.7223,VALID,81,VALID,0.698103,
2005-06-06, 00:49:00,VALID,916.258,VALID,0,VALID,99.9941,VALID,0.0679233,VALID,19.6834,VALID,80,VALID,0.616016,
2005-06-06, 00:50:00,VALID,916.231,VALID,0,VALID,100,VALID,0.0509425,VALID,19.661,VALID,80,VALID,0.568452,
2005-06-06, 00:51:01,VALID,916.244,VALID,0,VALID,100,VALID,0.0339617,VALID,19.6322,VALID,83,VALID,0.614769,
2005-06-06, 00:52:01,VALID,916.24,VALID,0,VALID,100,VALID,-0.0339617,VALID,19.6302,VALID,110,VALID,0.690476,
2005-06-06, 00:53:01,VALID,916.254,VALID,0,VALID,100,VALID,-0.0849042,VALID,19.5982,VALID,113,VALID,0.447027,
2005-06-06, 00:54:00,VALID,916.254,VALID,0,VALID,100,VALID,-0.101885,VALID,19.5959,VALID,123,VALID,0.583519,
2005-06-06, 00:55:00,VALID,916.239,VALID,0,VALID,100,VALID,-0.0679233,VALID,19.5887,VALID,138,VALID,0.536175,
2005-06-06, 00:56:00,VALID,916.227,VALID,0,VALID,100,VALID,-0.0509425,VALID,19.6116,VALID,136,VALID,0.554506,
2005-06-06, 00:57:00,VALID,916.229,VALID,0,VALID,100,VALID,-0.0849042,VALID,19.6439,VALID,135,VALID,0.395486,
2005-06-06, 00:58:00,VALID,916.196,VALID,0,VALID,100,VALID,-0.0849042,VALID,19.6466,VALID,136,VALID,0.31808,
2005-06-06, 00:59:00,VALID,916.178,VALID,0,VALID,100,VALID,-0.0849042,VALID,19.6754,VALID,140,VALID,0.512536,
2005-06-06, 01:00:00,VALID,916.151,VALID,0,VALID,100,VALID,-0.0509425,VALID,19.7084,VALID,146,VALID,0.496626,
2005-06-06, 01:01:00,VALID,916.124,VALID,0,VALID,100,VALID,-0.0509425,VALID,19.7104,VALID,152,VALID,0.764757,
2005-06-06, 01:02:01,VALID,916.099,VALID,0,VALID,100,VALID,-0.0679233,VALID,19.7566,VALID,154,VALID,0.649148,
2005-06-06, 01:03:01,VALID,916.079,VALID,0,VALID,100,VALID,-0.0849042,VALID,19.7695,VALID,163,VALID,0.371838,
2005-06-06, 01:04:00,VALID,916.086,VALID,0,VALID,100,VALID,-0.0509425,VALID,19.7723,VALID,163,VALID,0.434443,
2005-06-06, 01:05:00,VALID,916.073,VALID,0,VALID,100,VALID,-0.0679233,VALID,19.7954,VALID,150,VALID,0.656597,
2005-06-06, 01:06:00,VALID,916.081,VALID,0,VALID,100,VALID,-0.0509425,VALID,19.7887,VALID,148,VALID,0.471989,
2005-06-06, 01:07:00,VALID,916.072,VALID,0,VALID,100,VALID,-0.0339617,VALID,19.776,VALID,142,VALID,0.585751,
2005-06-06, 01:08:00,VALID,916.073,VALID,0,VALID,99.8027,VALID,0.0169808,VALID,19.7035,VALID,121,VALID,0.557478,
2005-06-06, 01:09:00,VALID,916.075,VALID,0,VALID,99.6938,VALID,0.0509425,VALID,19.6424,VALID,112,VALID,0.693216,
2005-06-06, 01:10:00,VALID,916.085,VALID,0,VALID,99.9878,VALID,0,VALID,19.6359,VALID,109,VALID,0.707961,
2005-06-06, 01:11:00,VALID,916.083,VALID,0,VALID,100,VALID,0,VALID,19.623,VALID,108,VALID,0.674782,
2005-06-06, 01:12:00,VALID,916.095,VALID,0,VALID,100,VALID,0,VALID,19.5676,VALID,104,VALID,0.739901,
2005-06-06, 01:13:00,VALID,916.093,VALID,0,VALID,100,VALID,0.0169808,VALID,19.546,VALID,93,VALID,0.803013,
2005-06-06, 01:14:00,VALID,916.097,VALID,0,VALID,100,VALID,0.0169808,VALID,19.4876,VALID,91,VALID,0.675781,
2005-06-06, 01:15:01,VALID,916.099,VALID,0,VALID,100,VALID,0,VALID,19.4752,VALID,90,VALID,0.707508,
2005-06-06, 01:16:00,VALID,916.1,VALID,0,VALID,100,VALID,0.0169808,VALID,19.4457,VALID,90,VALID,0.525174,
2005-06-06, 01:17:01,VALID,916.089,VALID,0,VALID,100,VALID,0,VALID,19.4298,VALID,90,VALID,0.603849,
2005-06-06, 01:18:00,VALID,916.082,VALID,0,VALID,100,VALID,-0.0169808,VALID,19.3808,VALID,87,VALID,0.669695,
2005-06-06, 01:19:00,VALID,916.044,VALID,0,VALID,99.9341,VALID,0,VALID,19.3555,VALID,79,VALID,0.739901,
2005-06-06, 01:20:01,VALID,916.04,VALID,0,VALID,99.9657,VALID,0,VALID,19.3232,VALID,78,VALID,0.845881,
2005-06-06, 01:21:00,VALID,916.026,VALID,0,VALID,100,VALID,0,VALID,19.3138,VALID,78,VALID,0.955031,
2005-06-06, 01:22:00,VALID,916,VALID,0,VALID,100,VALID,0,VALID,19.2942,VALID,77,VALID,0.937119,
2005-06-06, 01:23:01,VALID,915.996,VALID,0,VALID,100,VALID,0,VALID,19.3009,VALID,76,VALID,0.71439,
2005-06-06, 01:24:00,VALID,915.986,VALID,0,VALID,100,VALID,0,VALID,19.2942,VALID,76,VALID,0.691746,
2005-06-06, 01:25:01,VALID,915.98,VALID,0,VALID,100,VALID,0,VALID,19.2877,VALID,76,VALID,0.559338,
2005-06-06, 01:26:00,VALID,915.97,VALID,0,VALID,100,VALID,0,VALID,19.2842,VALID,76,VALID,0.627604,
2005-06-06, 01:27:00,VALID,915.973,VALID,0,VALID,100,VALID,0.0169808,VALID,19.2616,VALID,76,VALID,0.633358,
2005-06-06, 01:28:01,VALID,915.971,VALID,0,VALID,100,VALID,0,VALID,19.2522,VALID,77,VALID,0.679492,
2005-06-06, 01:29:00,VALID,915.978,VALID,0,VALID,100,VALID,0.0169808,VALID,19.2522,VALID,79,VALID,0.652902,
2005-06-06, 01:30:00,VALID,915.981,VALID,0,VALID,100,VALID,0,VALID,19.2527,VALID,79,VALID,0.640816,
2005-06-06, 01:31:00,VALID,915.978,VALID,0,VALID,100,VALID,0,VALID,19.2298,VALID,80,VALID,0.699609,
2005-06-06, 01:32:00,VALID,915.952,VALID,0,VALID,100,VALID,-0.0169808,VALID,19.2331,VALID,82,VALID,0.705915,
2005-06-06, 01:33:00,VALID,915.941,VALID,0,VALID,100,VALID,0.0169808,VALID,19.2323,VALID,84,VALID,0.57431,
2005-06-06, 01:34:00,VALID,915.924,VALID,0,VALID,100,VALID,0,VALID,19.2293,VALID,84,VALID,0.440518,
2005-06-06, 01:35:00,VALID,915.891,VALID,0,VALID,100,VALID,0,VALID,19.2264,VALID,84,VALID,0.392485,
2005-06-06, 01:36:00,VALID,915.875,VALID,0,VALID,100,VALID,0.0169808,VALID,19.2363,VALID,84,VALID,0.475586,
2005-06-06, 01:37:00,VALID,915.851,VALID,0,VALID,100,VALID,-0.0169808,VALID,19.2398,VALID,84,VALID,0.460938,
2005-06-06, 01:38:01,VALID,915.818,VALID,0,VALID,100,VALID,-0.101885,VALID,19.2407,VALID,84,VALID,0.331499,
2005-06-06, 01:39:00,VALID,915.817,VALID,0,VALID,100,VALID,-0.101885,VALID,19.2469,VALID,84,VALID,0.46782,
2005-06-06, 01:40:01,VALID,915.813,VALID,0,VALID,100,VALID,-0.0849042,VALID,19.2504,VALID,84,VALID,0.256925,
2005-06-06, 01:41:00,VALID,915.806,VALID,0,VALID,100,VALID,-0.101885,VALID,19.244,VALID,84,VALID,0.321915,
2005-06-06, 01:42:01,VALID,915.806,VALID,0,VALID,100,VALID,-0.101885,VALID,19.2536,VALID,84,VALID,0.137957,
2005-06-06, 01:43:00,VALID,915.821,VALID,0,VALID,99.9779,VALID,-0.101885,VALID,19.2504,VALID,84,VALID,0.0125,
2005-06-06, 01:44:01,VALID,915.836,VALID,0,VALID,99.7993,VALID,-0.0849042,VALID,19.2345,VALID,84,VALID,0,
2005-06-06, 01:45:01,VALID,915.855,VALID,0,VALID,98.9944,VALID,-0.101885,VALID,19.1536,VALID,84,VALID,0.13186,
2005-06-06, 01:46:00,VALID,915.846,VALID,0,VALID,98.3052,VALID,-0.101885,VALID,19.0408,VALID,76,VALID,0.474144,
2005-06-06, 01:47:00,VALID,915.831,VALID,0,VALID,98.351,VALID,-0.101885,VALID,18.9405,VALID,53,VALID,0.958891,
2005-06-06, 01:48:01,VALID,915.84,VALID,0,VALID,98.866,VALID,-0.118866,VALID,18.8731,VALID,52,VALID,1.02674,
2005-06-06, 01:49:00,VALID,915.813,VALID,0,VALID,99.531,VALID,-0.101885,VALID,18.8662,VALID,52,VALID,1.07213,
2005-06-06, 01:50:00,VALID,915.803,VALID,0,VALID,99.9474,VALID,-0.118866,VALID,18.9216,VALID,52,VALID,1.00838,
2005-06-06, 01:51:00,VALID,915.798,VALID,0,VALID,100,VALID,-0.118866,VALID,18.9859,VALID,52,VALID,0.84096,
2005-06-06, 01:52:01,VALID,915.783,VALID,0,VALID,100,VALID,-0.0849042,VALID,19.0507,VALID,61,VALID,0.710751,
2005-06-06, 01:53:00,VALID,915.774,VALID,0,VALID,100,VALID,-0.0339617,VALID,19.0979,VALID,66,VALID,0.654978,
2005-06-06, 01:54:00,VALID,915.779,VALID,0,VALID,100,VALID,0,VALID,19.1464,VALID,66,VALID,0.507622,
2005-06-06, 01:55:00,VALID,915.784,VALID,0,VALID,99.8222,VALID,0,VALID,19.1692,VALID,66,VALID,0.500781,
2005-06-06, 01:56:01,VALID,915.779,VALID,0,VALID,99.6239,VALID,0,VALID,19.1563,VALID,66,VALID,0.632999,
2005-06-06, 01:57:01,VALID,915.764,VALID,0,VALID,99.4433,VALID,0,VALID,19.1568,VALID,66,VALID,0.662287,
2005-06-06, 01:58:00,VALID,915.768,VALID,0,VALID,99.3352,VALID,0,VALID,19.1332,VALID,66,VALID,0.650391,
2005-06-06, 01:59:00,VALID,915.765,VALID,0,VALID,99.6315,VALID,-0.0169808,VALID,19.1466,VALID,70,VALID,0.791797,
2005-06-06, 02:00:00,VALID,915.767,VALID,0,VALID,99.8591,VALID,-0.0169808,VALID,19.1754,VALID,76,VALID,0.716667,
2005-06-06, 02:01:01,VALID,915.75,VALID,0,VALID,99.7103,VALID,-0.0169808,VALID,19.198,VALID,80,VALID,0.660633,
2005-06-06, 02:02:00,VALID,915.734,VALID,0,VALID,99.7002,VALID,-0.0339617,VALID,19.2109,VALID,92,VALID,0.644159,
2005-06-06, 02:03:00,VALID,915.71,VALID,0,VALID,99.5043,VALID,-0.0169808,VALID,19.2144,VALID,97,VALID,0.59484,
2005-06-06, 02:04:00,VALID,915.705,VALID,0,VALID,99.4217,VALID,0,VALID,19.2015,VALID,97,VALID,0.550391,
2005-06-06, 02:05:01,VALID,915.697,VALID,0,VALID,99.3937,VALID,0,VALID,19.1782,VALID,97,VALID,0.508903,
2005-06-06, 02:06:00,VALID,915.687,VALID,0,VALID,99.3632,VALID,0,VALID,19.1491,VALID,97,VALID,0.493304,
2005-06-06, 02:07:00,VALID,915.712,VALID,0,VALID,99.3136,VALID,0,VALID,19.1201,VALID,97,VALID,0.495046,
2005-06-06, 02:08:01,VALID,915.693,VALID,0,VALID,99.1445,VALID,-0.0169808,VALID,19.0846,VALID,96,VALID,0.577939,
2005-06-06, 02:09:01,VALID,915.716,VALID,0,VALID,99.1127,VALID,-0.0169808,VALID,19.053,VALID,86,VALID,0.538318,
2005-06-06, 02:10:00,VALID,915.722,VALID,0,VALID,99.3174,VALID,-0.0849042,VALID,19.0301,VALID,85,VALID,0.444169,
2005-06-06, 02:11:00,VALID,915.746,VALID,0,VALID,99.5628,VALID,-0.0339617,VALID,19.0599,VALID,85,VALID,0.333891,
2005-06-06, 02:12:01,VALID,915.757,VALID,0,VALID,99.6073,VALID,-0.0169808,VALID,19.0565,VALID,85,VALID,0.144077,
2005-06-06, 02:13:01,VALID,915.751,VALID,0,VALID,99.7332,VALID,-0.0339617,VALID,19.0724,VALID,85,VALID,0.00677083,
2005-06-06, 02:14:00,VALID,915.752,VALID,0,VALID,99.8159,VALID,-0.0339617,VALID,19.0726,VALID,85,VALID,0.108631,
2005-06-06, 02:15:01,VALID,915.752,VALID,0,VALID,99.9262,VALID,-0.0169808,VALID,19.0791,VALID,85,VALID,0.582122,
2005-06-06, 02:16:01,VALID,915.742,VALID,0,VALID,100,VALID,-0.0169808,VALID,19.1014,VALID,85,VALID,0.755022,
2005-06-06, 02:17:00,VALID,915.744,VALID,0,VALID,100,VALID,-0.0339617,VALID,19.127,VALID,85,VALID,0.882431,
2005-06-06, 02:18:00,VALID,915.721,VALID,0,VALID,100,VALID,-0.0509425,VALID,19.1856,VALID,85,VALID,0.851744,
2005-06-06, 02:19:00,VALID,915.699,VALID,0,VALID,100,VALID,-0.0339617,VALID,19.2109,VALID,85,VALID,0.825347,
2005-06-06, 02:20:00,VALID,915.698,VALID,0,VALID,99.9977,VALID,-0.0169808,VALID,19.2176,VALID,85,VALID,0.762173,
2005-06-06, 02:21:01,VALID,915.678,VALID,0,VALID,99.7904,VALID,-0.0339617,VALID,19.2109,VALID,85,VALID,0.636719,
2005-06-06, 02:22:00,VALID,915.668,VALID,0,VALID,99.1419,VALID,-0.0169808,VALID,19.1427,VALID,83,VALID,0.843369,
2005-06-06, 02:23:01,VALID,915.672,VALID,0,VALID,98.7248,VALID,-0.0169808,VALID,19.0885,VALID,82,VALID,0.896984,
2005-06-06, 02:24:00,VALID,915.656,VALID,0,VALID,99.1585,VALID,-0.0169808,VALID,19.0339,VALID,79,VALID,0.960938,
2005-06-06, 02:25:01,VALID,915.653,VALID,0,VALID,99.7154,VALID,0,VALID,19.0168,VALID,84,VALID,0.976563,
2005-06-06, 02:26:01,VALID,915.63,VALID,0,VALID,99.8477,VALID,-0.0339617,VALID,19.0239,VALID,93,VALID,0.850991,
2005-06-06, 02:27:01,VALID,915.634,VALID,0,VALID,99.6391,VALID,-0.0679233,VALID,18.9986,VALID,93,VALID,0.809152,
2005-06-06, 02:28:01,VALID,915.633,VALID,0,VALID,99.5819,VALID,-0.0169808,VALID,18.9594,VALID,89,VALID,0.860054,
2005-06-06, 02:29:00,VALID,915.608,VALID,0,VALID,99.6404,VALID,-0.0169808,VALID,18.9464,VALID,82,VALID,0.738735,
2005-06-06, 02:30:01,VALID,915.599,VALID,0,VALID,99.7765,VALID,-0.0169808,VALID,18.9273,VALID,87,VALID,0.894531,
2005-06-06, 02:31:00,VALID,915.585,VALID,0,VALID,99.943,VALID,-0.0169808,VALID,18.931,VALID,97,VALID,1.04365,
2005-06-06, 02:32:01,VALID,915.579,VALID,0,VALID,99.9377,VALID,-0.0509425,VALID,18.9398,VALID,115,VALID,0.975991,
2005-06-06, 02:33:01,VALID,915.562,VALID,0,VALID,99.6429,VALID,-0.0169808,VALID,18.934,VALID,135,VALID,1.02646,
2005-06-06, 02:34:01,VALID,915.565,VALID,0,VALID,99.855,VALID,0,VALID,18.9174,VALID,134,VALID,1.06855,
2005-06-06, 02:35:01,VALID,915.569,VALID,0,VALID,99.9977,VALID,-0.0169808,VALID,18.9308,VALID,122,VALID,0.619731,
2005-06-06, 02:36:01,VALID,915.574,VALID,0,VALID,100,VALID,-0.0339617,VALID,18.937,VALID,118,VALID,1.0229,
2005-06-06, 02:37:01,VALID,915.586,VALID,0,VALID,100,VALID,-0.0679233,VALID,18.9308,VALID,123,VALID,1.01879,
2005-06-06, 02:38:00,VALID,915.594,VALID,0,VALID,100,VALID,-0.152827,VALID,18.9154,VALID,122,VALID,0.890244,
2005-06-06, 02:39:01,VALID,915.606,VALID,0,VALID,100,VALID,-0.135847,VALID,18.9029,VALID,122,VALID,1.00539,
2005-06-06, 02:40:01,VALID,915.618,VALID,0,VALID,100,VALID,-0.135847,VALID,18.8704,VALID,115,VALID,0.965732,
2005-06-06, 02:41:01,VALID,915.639,VALID,0,VALID,100,VALID,-0.152827,VALID,18.8252,VALID,123,VALID,0.70585,
2005-06-06, 02:42:01,VALID,915.639,VALID,0,VALID,100,VALID,-0.135847,VALID,18.8123,VALID,110,VALID,0.835751,
2005-06-06, 02:43:01,VALID,915.623,VALID,0,VALID,100,VALID,-0.169808,VALID,18.7894,VALID,107,VALID,0.861683,
2005-06-06, 02:44:01,VALID,915.62,VALID,0,VALID,100,VALID,-0.101885,VALID,18.8095,VALID,104,VALID,0.84517,
2005-06-06, 02:45:01,VALID,915.62,VALID,0,VALID,100,VALID,-0.118866,VALID,18.7929,VALID,112,VALID,0.936806,
2005-06-06, 02:46:01,VALID,915.623,VALID,0,VALID,100,VALID,-0.101885,VALID,18.7828,VALID,115,VALID,0.936384,
2005-06-06, 02:47:01,VALID,915.625,VALID,0,VALID,100,VALID,-0.152827,VALID,18.8157,VALID,113,VALID,0.808488,
2005-06-06, 02:48:01,VALID,915.623,VALID,0,VALID,100,VALID,-0.118866,VALID,18.8314,VALID,100,VALID,0.774164,
2005-06-06, 02:49:01,VALID,915.615,VALID,0,VALID,100,VALID,-0.135847,VALID,18.848,VALID,95,VALID,0.95258,
2005-06-06, 02:50:01,VALID,915.587,VALID,0,VALID,100,VALID,-0.101885,VALID,18.8833,VALID,101,VALID,0.736192,
2005-06-06, 02:51:01,VALID,915.563,VALID,0,VALID,100,VALID,-0.101885,VALID,18.8796,VALID,101,VALID,0.817336,
2005-06-06, 02:52:01,VALID,915.552,VALID,0,VALID,100,VALID,-0.0679233,VALID,18.8766,VALID,102,VALID,0.719122,
2005-06-06, 02:53:01,VALID,915.542,VALID,0,VALID,100,VALID,0.0169808,VALID,18.8553,VALID,102,VALID,0.687691,
2005-06-06, 02:54:01,VALID,915.532,VALID,0,VALID,100,VALID,0.0169808,VALID,18.8687,VALID,103,VALID,0.54851,
2005-06-06, 02:55:01,VALID,915.535,VALID,0,VALID,100,VALID,0.0169808,VALID,18.8757,VALID,103,VALID,0.609756,
2005-06-06, 02:56:01,VALID,915.55,VALID,0,VALID,100,VALID,0,VALID,18.892,VALID,121,VALID,0.749826,
2005-06-06, 02:57:01,VALID,915.547,VALID,0,VALID,100,VALID,0.0509425,VALID,18.8881,VALID,123,VALID,0.529688,
2005-06-06, 02:58:01,VALID,915.555,VALID,0,VALID,100,VALID,0.0679233,VALID,18.901,VALID,123,VALID,0.456321,
2005-06-06, 02:59:01,VALID,915.557,VALID,0,VALID,100,VALID,0.0169808,VALID,18.9139,VALID,117,VALID,0.777344,
2005-06-06, 03:00:01,VALID,915.551,VALID,0,VALID,100,VALID,0,VALID,18.9243,VALID,114,VALID,0.699826,
2005-06-06, 03:01:01,VALID,915.56,VALID,0,VALID,100,VALID,0,VALID,18.9211,VALID,114,VALID,0.65625,
2005-06-06, 03:02:01,VALID,915.559,VALID,0,VALID,100,VALID,0.0169808,VALID,18.9176,VALID,114,VALID,0.726563,
2005-06-06, 03:03:01,VALID,915.56,VALID,0,VALID,100,VALID,0.0509425,VALID,18.9142,VALID,114,VALID,0.623094,
2005-06-06, 03:04:01,VALID,915.562,VALID,0,VALID,100,VALID,0.0169808,VALID,18.9109,VALID,114,VALID,0.330669,
2005-06-06, 03:05:01,VALID,915.559,VALID,0,VALID,100,VALID,0.0509425,VALID,18.8975,VALID,114,VALID,0.260016,
2005-06-06, 03:06:01,VALID,915.559,VALID,0,VALID,100,VALID,0.0509425,VALID,18.8787,VALID,114,VALID,0.571484,
2005-06-06, 03:07:01,VALID,915.564,VALID,0,VALID,100,VALID,0.0339617,VALID,18.8625,VALID,117,VALID,0.808771,
2005-06-06, 03:08:01,VALID,915.543,VALID,0,VALID,100,VALID,0.0509425,VALID,18.872,VALID,132,VALID,0.841933,
2005-06-06, 03:09:01,VALID,915.53,VALID,0,VALID,100,VALID,0.0339617,VALID,18.9015,VALID,127,VALID,0.729911,
2005-06-06, 03:10:01,VALID,915.528,VALID,0,VALID,100,VALID,0.0169808,VALID,18.9038,VALID,114,VALID,0.518674,
2005-06-06, 03:11:00,VALID,915.527,VALID,0,VALID,100,VALID,0.0339617,VALID,18.9077,VALID,108,VALID,0.491257,
2005-06-06, 03:12:00,VALID,915.519,VALID,0,VALID,100,VALID,0.0339617,VALID,18.8844,VALID,99,VALID,0.527344,
2005-06-06, 03:13:00,VALID,915.523,VALID,0,VALID,100,VALID,0.0169808,VALID,18.8883,VALID,104,VALID,0.701087,
2005-06-06, 03:14:00,VALID,915.523,VALID,0,VALID,100,VALID,0,VALID,18.9079,VALID,104,VALID,0.462798,
2005-06-06, 03:15:00,VALID,915.529,VALID,0,VALID,100,VALID,0,VALID,18.9077,VALID,104,VALID,0.297805,
2005-06-06, 03:16:00,VALID,915.533,VALID,0,VALID,99.6668,VALID,0.0509425,VALID,18.875,VALID,104,VALID,0.318452,
2005-06-06, 03:17:00,VALID,915.538,VALID,0,VALID,98.9168,VALID,0.0169808,VALID,18.7753,VALID,91,VALID,0.613758,
2005-06-06, 03:18:00,VALID,915.536,VALID,0,VALID,99.133,VALID,0.0169808,VALID,18.7394,VALID,79,VALID,0.757118,
2005-06-06, 03:19:00,VALID,915.534,VALID,0,VALID,99.3721,VALID,0.0169808,VALID,18.7302,VALID,79,VALID,0.807292,
2005-06-06, 03:20:00,VALID,915.52,VALID,0,VALID,99.826,VALID,0.0169808,VALID,18.7495,VALID,79,VALID,0.865699,
2005-06-06, 03:21:00,VALID,915.499,VALID,0,VALID,99.9977,VALID,0.0169808,VALID,18.7627,VALID,80,VALID,0.892223,
2005-06-06, 03:22:00,VALID,915.483,VALID,0,VALID,100,VALID,0.0169808,VALID,18.7783,VALID,87,VALID,0.865552,
2005-06-06, 03:23:00,VALID,915.466,VALID,0,VALID,100,VALID,0,VALID,18.7883,VALID,95,VALID,0.810865,
2005-06-06, 03:24:00,VALID,915.466,VALID,0,VALID,100,VALID,0,VALID,18.7816,VALID,105,VALID,0.638622,
2005-06-06, 03:25:00,VALID,915.456,VALID,0,VALID,100,VALID,0.0339617,VALID,18.7786,VALID,136,VALID,0.976563,
2005-06-06, 03:26:00,VALID,915.446,VALID,0,VALID,99.9916,VALID,0,VALID,18.7952,VALID,127,VALID,0.961483,
2005-06-06, 03:27:00,VALID,915.433,VALID,0,VALID,99.9428,VALID,0.0339617,VALID,18.8111,VALID,128,VALID,0.85992,
2005-06-06, 03:28:00,VALID,915.432,VALID,0,VALID,99.8197,VALID,0,VALID,18.8464,VALID,125,VALID,0.723242,
2005-06-06, 03:29:00,VALID,915.435,VALID,0,VALID,99.5857,VALID,0,VALID,18.8655,VALID,125,VALID,0.483487,
2005-06-06, 03:30:00,VALID,915.424,VALID,0,VALID,99.3988,VALID,0.0169808,VALID,18.8858,VALID,125,VALID,0.504573,
2005-06-06, 03:31:00,VALID,915.402,VALID,0,VALID,99.6035,VALID,0.0169808,VALID,18.9114,VALID,128,VALID,0.778764,
2005-06-06, 03:32:00,VALID,915.394,VALID,0,VALID,99.7269,VALID,0,VALID,18.9209,VALID,135,VALID,0.732088,
2005-06-06, 03:33:00,VALID,915.396,VALID,0,VALID,99.6862,VALID,0,VALID,18.9368,VALID,138,VALID,0.658612,
2005-06-06, 03:34:00,VALID,915.38,VALID,0,VALID,99.6264,VALID,0,VALID,18.9437,VALID,138,VALID,0.701853,
2005-06-06, 03:35:00,VALID,915.375,VALID,0,VALID,99.531,VALID,0.0169808,VALID,18.9598,VALID,138,VALID,0.625694,